OPS 0856 DEB, 27724

Orbit data source: Space-Track

OPS 0856 DEB, 27724 is space debris in LEO originally from a launch on Fri, 19 Aug 1966 UTC launched from the Air Force Western Test Range (AFWTR). Debris objects in space refer to the collection of defunct objects orbiting the Earth. Examples of debris include non-operational satellites, rocket bodies, and fragments generated from explosions, collisions, or faulty payload assembly.

Loading next visibility...
OPS 0856 DEB details
Identifier
27724, 1966-077AC
Orbit
LEO
Last TLE update4 months ago
Origin
Flag of USUSAF SMC (US)
ManufacturerUnknown
MissionSpacecraft
Bus & MotorUnknown
MassUnknown
Launch date (UTC)
1966-08-19 (58 years ago)
Launch vehicleUnknown
Launch site
Air Force Western Test Range (AFWTR)
Object type
Payload
Rocket body
Debris
Shape & HBRUnknown
Radar Cross SectionSmall (<0.1 m²)

Expand to show TLE details & history

TLE from 4 months ago
0 OPS 0856 DEB
1 27724U 66077AC  24232.93446642  .00000319  00000-0  54220-1 0  9996
2 27724  89.4978 220.2823 1303233 319.0474  53.8356  8.79425084 92515
Epoch: 2024-08-19T22:25Z
Definitive object data (Epoch: 2024-08-19T22:25:37.898Z)
Latitude26.12028°
Longitude-84.63863°
Altitude2,899.242 km
Speed6.765 km/s
True Right ascension14h 42m 06s
True Declination26° 00' 57"
Sunlit
Object was in daylight at TLE epoch
Visualization TLE readout
Latitude28.37395°
Longitude92.46094°
Altitude2,394.573 km
Speed7.122 km/s
Apparent Right ascension02h 17m 33s
Apparent Declination0° 21' 53"
Sunlit
Object is in daylight
Visualization observer readout
Local Sidereal Time13:57:07
Azimuth352.13° N
Elevation-49.45°
Doppler factor1
Orbital elements
Apogee altitude4,825.846 km
Perigee altitude2,242.266 km
Semi-major axis9,912.193 km
Eccentricity0.1303233
Inclination89.4978°
RAAN220.2823°
Arg. of periapsis319.0474°
True anomaly67.0489°
Mean anomaly53.8356°
Eccentric anomaly60.32314°
Mean motion2.19932 °/min
BSTAR0.05422
Orbital period163.69 mins
Loading maneuver chart data...
Loading historical data...
Loading historical data...
Loading historical data...
Loading historical data...
Loading historical data...
Loading historical data...
Loading historical data...

OPS 0856 DEB Visibility forecast

Observer location: undefined°, undefined

Span
Click to sort rows by Start time (UTC) header in descending order
Start Az.
Max El. time (UTC)
Max El. Az.
Max El.
End time (UTC)
End Az.
45 mins2024-12-21 16:23:55.395Z199.439° SSW2024-12-21 16:48:55.395Z275.486° WNW39.573°2024-12-21 17:08:55.395Z353.174° N
5 mins2024-12-21 19:37:55.395Z303.673° NW2024-12-21 19:39:55.395Z309.123° NW10.4°2024-12-21 19:42:55.395Z317.538° NNW
22 mins2024-12-22 01:32:55.395Z13.291° NNE2024-12-22 01:44:55.395Z74.587° E29.935°2024-12-22 01:54:55.395Z135.092° SSE
24 mins2024-12-22 04:15:55.395Z353.702° N2024-12-22 04:28:55.395Z283.578° WNW37.935°2024-12-22 04:39:55.395Z214.305° SW
22 mins2024-12-22 11:50:55.395Z83.446° E2024-12-22 12:02:55.395Z50.901° ENE17.488°2024-12-22 12:12:55.395Z19.648° NNE
39 mins2024-12-22 14:15:55.395Z154.468° SSE2024-12-22 14:39:55.395Z80.402° E42.944°2024-12-22 14:54:55.395Z6.212° NNE
|